Flag for Brazil Weather past 2 weeks in Santarém, Para, Brazil

Now
84 °F

Broken clouds.


Feels Like: 91 °F
Forecast: 75 / 88 °F
Wind: 8 mph from Southeast

Location: Santarem-Aeroporto


UV Index: 3 (Moderate)

Visibility: N/A


Pressure: 29.86 "Hg

Humidity: 70%

Dew point: 73 °F

Location of SantarémLocation

Historic Weather in Santarém

°F

Santarém temperature yesterday

Maximum temperature yesterday: 88 °F (at 1:00 PM)
Minimum temperature yesterday: 75 °F (at 6:00 AM)
Average temperature yesterday: 81 °F

Past Weeks' High & Low Weather Summary

 TemperatureHumidityPressure
High90 °F (Apr 5, 2:00 PM)100% (Apr 11, 1:00 AM)29.98 "Hg (Apr 11, 1:00 AM)
Low39 °F (Apr 11, 1:00 AM)52% (Apr 10, 2:00 PM)29.71 "Hg (Apr 14, 5:00 PM)
Average81 °F75%29.86 "Hg
* Reported Apr 5 2:00 PM — Apr 20 2:00 PM, Santarém, Weather by CustomWeather, © 2014

Note: Actual official high and low records may vary slightly from our data, if they occured in-between our weather recording intervals... More about our weather records

Advertising

Historic Weather Conditions — Data for Previous 24 hours

 ConditionsComfort  
Time TempWeatherWind HumidityBarometerVisibility
2:00 PM
Apr 20
86 °FBroken clouds.6 mph66%29.89 "HgN/A
1:00 PM86 °FScattered clouds.7 mph66%29.92 "HgN/A
12:00 PM84 °FScattered clouds.9 mph70%29.92 "HgN/A
11:00 AM86 °FPassing clouds.10 mph62%29.95 "HgN/A
10:00 AM84 °FPassing clouds.9 mph70%29.95 "HgN/A
9:00 AM81 °FPassing clouds.12 mph74%29.92 "HgN/A
8:00 AM81 °FPassing clouds.10 mph79%29.89 "HgN/A
7:00 AM77 °FScattered showers. Scattered clouds.9 mph89%29.89 "HgN/A
6:00 AM75 °FPartly cloudy.5 mph89%29.89 "HgN/A
5:00 AM79 °FRain. Mostly cloudy.16 mph84%29.86 "Hg2 mi
4:00 AM75 °FLight rain. Mostly cloudy.6 mph89%29.86 "Hg4 mi
3:00 AM79 °FLight rain. Partly cloudy.17 mph84%29.86 "Hg3 mi
2:00 AM79 °FPassing clouds.9 mph84%29.89 "HgN/A
1:00 AM77 °FClear.5 mph83%29.89 "Hg10 mi
12:00 AM77 °FPassing clouds.5 mph89%29.89 "HgN/A
11:00 PM
Apr 19
77 °FPassing clouds.3 mph83%29.89 "HgN/A
10:00 PM77 °FPassing clouds.5 mph83%29.86 "HgN/A
9:00 PM77 °FPassing clouds.6 mph83%29.83 "HgN/A
8:00 PM77 °FPassing clouds.2 mph83%29.80 "HgN/A
7:00 PM81 °FPassing clouds.6 mph70%29.77 "HgN/A
6:00 PM86 °FPassing clouds.9 mph66%29.77 "HgN/A
5:00 PM88 °FPassing clouds.9 mph59%29.77 "HgN/A
4:00 PM88 °FPassing clouds.10 mph59%29.80 "HgN/A
3:00 PM88 °FPassing clouds.10 mph59%29.83 "HgN/A
Weather by CustomWeather, © 2014

See weather overview